Balance de Beauraing

Balances > Beauraing > Ce mois-ci

Ce mois-ci

Voir les données pour : cette semaine | hier

Graphiques

  Température (°C)   Humidité (%)   Poids (kg)   Pluie (l/m²)



Journal

Désolé, aucune information concernant cette période n'est disponible.

Tableau

Date Température (°C)Humidité (%)Pluie (l/m²)Poids (kg)
minmaxmoyminmaxmoypoidsvariation
27/05/1914,220,017,0609075,5148,40,0
28/05/1911,416,814,0708580,1448,0-0,4
29/05/197,318,214,6559273,0047,8-0,2
30/05/1913,821,017,7698476,6047,80,0
31/05/1910,122,718,6619271,1047,80,0
01/06/199,628,021,7489166,2047,5-0,3
02/06/1912,030,824,6408960,3047,9+0,4
03/06/1918,923,221,3638574,1147,90,0
04/06/1913,328,521,5569273,8048,1+0,2
05/06/1917,623,319,7718780,0048,10,0
06/06/1910,618,515,1618675,1547,8-0,3
07/06/198,022,115,5578873,3147,6-0,2
08/06/1912,019,415,5607569,8347,3-0,3
09/06/199,320,016,7599271,5047,1-0,2
10/06/1910,123,817,6539275,5247,0-0,1
11/06/199,718,114,9689278,2146,8-0,2
12/06/1913,119,716,0589176,8646,7-0,1
13/06/1910,719,816,2638874,5146,5-0,2
14/06/1910,125,619,7519169,8046,50,0
15/06/1916,923,620,7549068,6946,3-0,2
16/06/1913,521,919,2618169,2046,2-0,1
17/06/1910,126,921,4489164,5047,3+1,1
18/06/1913,328,122,8459065,2047,5+0,2
19/06/1914,428,022,4548969,5047,7+0,2
20/06/1916,421,118,7648576,8147,4-0,3
21/06/198,823,318,2519064,6047,6+0,2
22/06/199,425,320,0508964,3048,1+0,5
23/06/1913,729,024,0508863,6049,0+0,9
24/06/1916,932,527,2428861,3050,2+1,2
25/06/1919,334,429,0428858,8060,2+10,0